Find Nimiq 1

NORAD ID: 25740 Int'l Des: 1999-027 Owner: TCAN Country: CA operational
HEOCIRCULAR

实时位置

正在加载3D地球...

关于 Nimiq 1

正在加载描述...

即将过境

Passes for default location (London). Set your location on the main map for personalized predictions.

高度历史

Loading altitude history...

两行轨道根数

1 25740U 99027A 26104.79275765 -.00000177 00000-0 00000+0 0 9991
2 25740 6.4632 71.5354 0013377 298.4418 79.0105 0.98580589 98150
Epoch: Apr 14, 2026 • Age: 14 hours

当前状态

高度 36257.5 km
速度 3.06 km/s
星下点 -4.02°S, 43.16°W
发射日期 May 20, 1999
运行时间 26.9 years
类型 other

技术详情

分类 Payload
质量 3646.00 kg
干质量 1500.00 kg
总质量 3646.00 kg
长度 4.50 m
直径 1.80 m
跨度 21.00 m
形状 Box + 2 Pan
制造商 LMCSS
平台类型 A2100AX
阶段状态 In Orbit
所有者/国家 TCAN/CA

Most Searched